Weather History for Wenatchee, WA

Change the Weather History Date:

Wednesday, February 6, 2013

  Actual Average Record
Temperature  
Mean Temperature 37 °F 33 °F  
Max Temperature 41 °F 39 °F 56 °F (1967)
Min Temperature 33 °F 27 °F 0 °F (2014)
Degree Days  
Heating Degree Days 28 32  
Month to date heating degree days 201 195  
Since 1 July heating degree days 4144 3815  
Cooling Degree Days 0 0  
Month to date cooling degree days 0 0  
Year to date cooling degree days 0 0  
Moisture  
Dew Point 31 °F    
Average Humidity 81    
Maximum Humidity 92    
Minimum Humidity 68    
Precipitation  
Precipitation 0.00 in 0.03 in 0.41 in (1996)
Month to date precipitation T 0.18  
Year to date precipitation 1.46 1.24  
Snow  
Snow 0.00 in 0.20 in - ()
Month to date snowfall 0.0 1.2  
Snow Depth 3.00 in    
Sea Level Pressure  
Sea Level Pressure 29.99 in    
Wind  
Wind Speed 2 mph (East)    
Max Wind Speed 7 mph    
Max Gust Speed -    
Visibility 9 miles    
Events      
T = Trace of Precipitation, MM = Missing Value Source: NWS Daily Summary

Daily Weather History Graph

Daily Weather History Graph

Search for Another Location

Airport:

Trip Planner

Search our weather history database for the weather conditions in past years. The results will help you decide how hot, cold, wet, or windy it might be!

Date:

Astronomy

Feb. 06, 2013 Rise Set
Actual Time 7:19 AM PST 5:11 PM PST
Civil Twilight 6:47 AM PST 5:43 PM PST
Nautical Twilight 6:10 AM PST 6:19 PM PST
Astronomical Twilight 5:35 AM PST 6:55 PM PST
Moon 4:16 AM PST (2/6) 1:26 PM PST (2/6)
Length of Visible Light 10h 56m
Length of Day
9h 51m
Waning Crescent, 16% of the Moon is Illuminated
Feb 6
Waning Crescent
Feb 9
New
Feb 17
First Quarter
Feb 25
Full
Mar 4
Last Quarter

Hourly Weather History & Observations

Time (PST) Temp. Windchill Dew Point Humidity Pressure Visibility Wind Dir Wind Speed Gust Speed Precip Events Conditions
12:55 AM 30.9 °F 26.2 °F 28.0 °F 89% 29.93 in 6.0 mi East 4.6 mph - N/A   Overcast
1:55 AM 32.0 °F - 28.9 °F 88% 29.95 in 6.0 mi Calm Calm - N/A   Mostly Cloudy
2:55 AM 32.0 °F 28.7 °F 28.9 °F 88% 29.95 in 6.0 mi ENE 3.5 mph - N/A   Partly Cloudy
3:55 AM 28.9 °F 23.9 °F 27.0 °F 92% 29.96 in 5.0 mi East 4.6 mph - N/A   Clear
4:55 AM 32.0 °F 28.7 °F 28.9 °F 88% 29.98 in 8.0 mi NE 3.5 mph - N/A   Clear
5:55 AM 32.0 °F - 28.0 °F 85% 29.99 in 9.0 mi Calm Calm - N/A   Clear
6:55 AM 30.9 °F 27.5 °F 28.0 °F 89% 30.00 in 10.0 mi South 3.5 mph - N/A   Clear
7:55 AM 33.1 °F 30.0 °F 28.9 °F 85% 30.01 in 9.0 mi NE 3.5 mph - N/A   Clear
8:55 AM 33.1 °F - 30.0 °F 89% 30.03 in 9.0 mi Calm Calm - N/A   Partly Cloudy
9:55 AM 37.0 °F 34.5 °F 30.0 °F 76% 30.04 in 10.0 mi East 3.5 mph - N/A   Partly Cloudy
10:55 AM 37.9 °F 32.7 °F 30.9 °F 76% 30.04 in 10.0 mi East 6.9 mph - N/A   Partly Cloudy
11:55 AM 41.0 °F - 33.1 °F 73% 30.03 in 10.0 mi Calm Calm - N/A   Scattered Clouds
12:55 PM 41.0 °F - 32.0 °F 70% 30.03 in 10.0 mi Calm Calm - N/A   Mostly Cloudy
1:55 PM 43.0 °F - 33.1 °F 68% 30.02 in 10.0 mi Calm Calm - N/A   Mostly Cloudy
2:55 PM 42.1 °F 39.2 °F 33.1 °F 70% 30.01 in 10.0 mi SW 4.6 mph - N/A   Overcast
3:55 PM 42.1 °F - 33.1 °F 70% 30.00 in 10.0 mi Calm Calm - N/A   Mostly Cloudy
4:55 PM 41.0 °F - 32.0 °F 70% 30.00 in 10.0 mi Calm Calm - N/A   Overcast
5:55 PM 39.0 °F - 32.0 °F 76% 29.99 in 10.0 mi Calm Calm - N/A   Overcast
6:55 PM 37.9 °F 34.4 °F 32.0 °F 79% 29.98 in 10.0 mi North 4.6 mph - N/A   Overcast
7:55 PM 37.0 °F 34.5 °F 32.0 °F 82% 29.97 in 10.0 mi Variable 3.5 mph - N/A   Overcast
8:55 PM 35.1 °F - 30.9 °F 85% 29.97 in 10.0 mi Calm Calm - N/A   Mostly Cloudy
9:55 PM 35.1 °F - 30.9 °F 85% 29.96 in 10.0 mi Calm Calm - N/A   Partly Cloudy
10:55 PM 35.1 °F - 30.9 °F 85% 29.96 in 10.0 mi Calm Calm - N/A   Overcast
11:55 PM 35.1 °F - 30.9 °F 85% 29.94 in 10.0 mi Calm Calm - N/A   Clear